Location: Bas Lanzent
(48.1360°N, 3.5871°W)
Time: 09:43:04
(UTC+00:00)

ALOS - Pass Details

Date: 18 February 2020
Orbit: 684 x 685 km, 97.8° (Epoch: 08 April)

Event Time Altitude Azimuth Distance (km) Brightness Sun altitude
Rises 05:50:04 0° 11° (N) 3,063 5.7 -15.1°
Reaches altitude 10° 05:52:20 10° 8° (N) 2,142 4.9 -14.7°
Maximum altitude 05:56:59 67° 287° (WNW) 745 2.2 -14.0°
Drops below altitude 10° 06:01:36 10° 205° (SSW) 2,125 4.6 -13.2°
Sets 06:03:50 0° 203° (SSW) 3,036 5.4 -12.8°
